This is the latest recevied weather packets stored in our database for station/object JA3YAI-13. If no packets are shown the sender has not sent any weather packets the latest 1 day(s).
| Time | Temp. | Humidity | Pressure | Rain* | Wind** | Luminosity | Snow |
|---|---|---|---|---|---|---|---|
| 1778001385 | 13.33° C | 87% | 1013 hPa | 0 mm | 0 m/s | - | - |
| 1778000785 | 12.78° C | 89% | 1013.1 hPa | 0 mm | 0 m/s | - | - |
| 1778000184 | 12.22° C | 91% | 1013 hPa | 0 mm | 0 m/s | - | - |
| 1777999584 | 12.22° C | 92% | 1012.9 hPa | 0 mm | 0 m/s | - | - |
| 1777998983 | 12.78° C | 91% | 1013 hPa | 0 mm | 0 m/s | - | - |
| 1777998385 | 12.78° C | 91% | 1013 hPa | 0 mm | 0 m/s | - | - |
| 1777997785 | 12.78° C | 89% | 1013.2 hPa | 0 mm | 0 m/s | - | - |
| 1777997184 | 13.89° C | 88% | 1013.3 hPa | 0 mm | 0 m/s | - | - |
| 1777996584 | 13.89° C | 88% | 1013.4 hPa | 0 mm | 0 m/s | - | - |
| 1777995985 | 14.44° C | 88% | 1013.3 hPa | 0 mm | 0 m/s | - | - |
| 1777995385 | 14.44° C | 89% | 1013.2 hPa | 0 mm | 0 m/s | - | - |
| 1777994784 | 13.89° C | 90% | 1013.3 hPa | 0 mm | 0 m/s | - | - |
| 1777994184 | 13.89° C | 89% | 1013.3 hPa | 0 mm | 0 m/s | - | - |
| 1777993585 | 13.89° C | 88% | 1013.1 hPa | 0 mm | 0 m/s | - | - |
| 1777992985 | 14.44° C | 86% | 1013.4 hPa | 0 mm | 0 m/s | - | - |
| 1777992384 | 15° C | 85% | 1013.4 hPa | 0 mm | 0 m/s | - | - |
| 1777991784 | 15.56° C | 83% | 1013.2 hPa | 0 mm | 0 m/s | - | - |
| 1777991184 | 15.56° C | 81% | 1013.2 hPa | 0 mm | 0.45 m/s, 97° | - | - |
| 1777990585 | 15.56° C | 78% | 1013.2 hPa | 0 mm | 0.45 m/s, 119° | - | - |
| 1777989985 | 15.56° C | 76% | 1013.2 hPa | 0 mm | 0.45 m/s, 126° | - | - |
| 1777989384 | 15.56° C | 73% | 1013.3 hPa | 0 mm | 0 m/s | - | - |
| 1777988784 | 16.11° C | 74% | 1013 hPa | 0 mm | 0.45 m/s, 133° | - | - |
| 1777988183 | 16.11° C | 75% | 1013.1 hPa | 0 mm | 0.45 m/s, 113° | - | - |
| 1777987585 | 16.11° C | 75% | 1012.9 hPa | 0 mm | 0 m/s | - | - |
| 1777986985 | 16.11° C | 75% | 1013.1 hPa | 0 mm | 0 m/s | - | - |
* Rain latest hour (hover to see other rain measurements)
** Current wind speed in m/s (hover to see current wind gust speed)